Theta_e
297 300 300 299 301 300 294 294 294 295 296 302 309 311 313 315 316 318 318 318 318 316 315 316 316 317 319 319 321 322 323 325 325 328 331 329 330 331 335 337 340 341 340 341
294 301 301 300 302 302 299 299 296 296 295 311 312 312 311 313 313 317 317 318 319 318 317 317 316 317 319 319 319 321 323 323 325 326 327 328 327 328 331 332 337 340 339 340
291 299 298 295 298 300 300 301 298 294 302 310 309 313 314 315 317 316 317 318 317 317 317 316 315 317 316 317 318 320 323 324 324 325 325 325 326 327 327 330 338 338 338 338
292 293 287 297 303 305 303 304 306 307 310 310 312 315 316 317 317 318 318 318 318 317 317 315 315 316 318 318 317 320 322 321 324 325 325 325 326 327 326 329 330 333 334 333
290 289 294 300 303 304 302 303 311 310 312 314 314 312 310 316 319 319 319 318 318 317 316 315 315 316 316 316 316 319 321 322 324 325 324 325 322 327 325 328 327 328 331 332
291 289 288 297 306 311 309 296 313 312 310 312 310 301 306 316 321 320 321 320 319 318 316 315 314 313 313 314 314 311 318 322 325 326 325 325 326 323 324 326 329 331 332 332
291 291 294 303 307 312 296 298 313 312 311 309 306 307 311 317 320 321 321 321 320 317 316 315 314 312 311 312 312 314 320 323 324 326 325 326 326 326 328 331 330 329 329 329
292 290 290 311 312 304 305 311 312 311 311 310 310 312 315 318 320 322 321 320 319 316 316 316 315 312 311 311 313 319 321 323 324 325 326 327 324 324 328 328 329 328 328 327
296 296 302 309 307 312 314 312 312 311 312 312 313 313 316 318 320 321 321 318 317 315 314 317 317 315 313 314 314 321 320 322 322 324 325 325 323 323 325 326 326 325 325 324
297 301 305 310 313 316 314 312 313 312 311 311 312 313 313 316 319 319 318 317 314 313 315 314 315 317 318 318 318 319 320 322 322 321 323 320 319 318 315 318 322 324 320 316
297 300 304 308 311 311 312 315 314 312 312 311 312 311 311 310 316 319 316 318 317 315 315 314 317 316 318 319 319 316 320 321 321 319 321 316 312 310 311 308 306 317 316 314
294 301 303 304 310 313 313 310 313 314 311 313 311 309 313 310 317 320 319 318 316 315 315 314 314 321 319 319 316 315 318 320 318 315 314 320 318 318 306 304 300 298 300 308
298 303 305 308 310 313 310 312 312 313 313 311 312 311 314 312 320 318 317 318 316 315 314 313 317 319 321 317 316 317 317 315 313 314 313 312 318 316 315 316 303 299 297 296
302 305 303 307 305 309 311 313 313 315 314 312 312 314 318 319 321 319 320 320 318 317 315 316 318 317 316 318 317 317 315 310 311 312 313 310 312 317 316 316 316 315 303 301
302 305 305 307 308 310 311 311 311 312 312 313 319 318 320 318 317 318 322 320 319 316 315 318 317 314 315 317 318 317 316 315 311 312 312 308 308 308 308 308 314 314 313 307
302 307 308 307 307 310 314 312 312 313 314 315 317 316 316 318 318 318 318 318 315 312 315 316 315 315 316 315 316 317 318 317 315 314 313 311 311 310 311 310 310 315 313 312
302 304 306 306 307 308 310 313 315 314 314 315 314 314 316 314 313 315 313 319 316 316 315 315 317 319 318 313 316 316 316 317 315 315 314 314 312 311 313 312 314 312 309 310
306 307 311 308 308 310 312 313 316 315 315 316 315 315 314 313 313 313 314 316 316 313 312 315 318 321 318 315 312 312 312 310 311 311 311 310 309 307 314 314 315 312 310 309
309 311 310 311 310 314 314 317 316 316 317 317 314 313 313 314 314 314 314 315 314 310 309 314 320 317 310 309 311 310 313 310 309 308 307 306 306 307 307 309 310 309 309 309
311 312 314 311 312 317 317 317 316 316 317 315 313 315 314 313 316 315 317 314 313 313 311 308 308 306 303 304 312 309 308 306 304 302 302 302 301 303 303 302 307 307 307 307
310 313 316 311 314 314 315 315 313 315 312 316 314 315 315 316 317 316 312 309 311 306 302 303 301 300 301 305 304 303 303 301 300 298 298 296 297 297 297 298 300 299 298 300
312 315 314 313 311 311 313 313 315 315 315 315 317 316 315 314 311 306 307 303 303 303 298 296 299 308 303 304 298 298 298 297 296 296 295 295 295 295 295 296 296 297 296 295
313 313 312 312 312 311 310 311 314 316 315 315 314 313 311 309 306 301 299 300 298 299 296 299 305 305 304 297 297 297 297 296 296 295 295 294 294 295 295 295 295 296 295 295
312 313 314 314 310 308 306 310 311 309 311 313 312 309 306 303 303 302 301 301 301 298 298 299 301 302 299 295 295 295 295 295 294 294 295 295 294 294 295 295 294 294 294 294
314 315 314 311 308 307 307 308 307 307 307 307 308 309 309 308 303 302 300 300 302 299 297 302 301 300 295 294 294 295 294 294 293 294 295 295 294 294 294 294 294 294 294 294
312 310 309 310 310 309 307 306 306 306 306 306 307 307 307 306 305 303 302 300 300 301 296 295 294 294 295 295 296 295 294 294 294 295 296 295 295 294 294 294 294 294 293 293
309 307 307 306 308 307 305 304 303 302 304 305 305 306 306 304 302 300 299 299 298 297 296 295 293 295 294 294 295 295 294 293 294 295 295 294 294 293 293 293 293 293 292 292
Wind_Speed
4 4 2 3 3 0 2 5 5 9 8 8 8 8 7 7 7 9 8 6 5 4 4 4 2 3 4 5 5 5 7 9 11 11 11 11 11 11 10 11 11 12 11 8
1 3 6 3 5 2 2 3 4 7 7 9 6 6 5 7 7 8 7 7 7 7 6 3 3 3 4 5 6 6 7 9 10 11 12 12 12 12 11 13 12 11 11 10
3 2 4 5 3 2 4 5 7 7 9 7 7 9 8 6 9 8 9 8 8 6 4 4 1 2 5 6 7 7 7 9 10 11 11 14 14 13 13 13 11 11 10 9
5 4 2 9 4 4 8 10 12 5 13 12 10 6 7 7 8 8 8 8 6 5 4 3 1 3 5 6 7 7 8 8 9 11 14 16 19 15 12 9 7 7 7 7
5 5 4 4 5 0 2 5 4 7 7 8 7 4 1 6 7 9 8 7 7 6 4 4 0 3 6 7 6 7 9 9 10 10 13 15 15 13 6 6 4 4 4 5
4 5 9 10 9 3 3 4 2 8 8 10 6 3 5 6 6 7 8 6 6 6 4 3 1 2 5 7 7 7 9 10 10 12 10 14 11 14 8 7 5 2 2 0
4 6 7 7 6 4 6 10 9 8 8 8 6 7 5 5 6 6 7 8 7 6 6 4 2 1 5 7 9 7 9 10 10 9 9 10 8 9 12 7 3 6 7 5
1 1 8 6 3 8 8 4 6 7 8 7 6 4 3 7 7 8 9 7 7 6 5 4 3 1 6 8 9 7 10 11 10 8 8 6 4 9 10 12 9 9 7 6
5 6 7 6 7 4 8 8 7 8 7 7 6 6 6 6 9 8 8 7 5 7 5 4 4 3 6 9 8 10 10 12 11 9 4 5 5 6 4 6 6 10 5 6
6 7 13 9 9 5 2 5 6 6 6 5 7 8 7 5 5 5 5 7 6 6 4 3 3 4 7 8 8 6 9 13 13 9 6 6 5 5 4 4 4 4 4 5
2 5 8 8 3 3 8 7 8 5 6 7 8 7 6 6 6 7 7 5 6 6 4 4 4 5 5 6 6 6 1 11 14 4 1 3 3 3 4 2 3 3 3 2
5 4 4 9 11 10 3 4 6 3 1 3 6 7 6 6 7 7 7 5 5 6 5 4 3 5 6 4 3 6 5 5 6 5 4 2 2 2 5 4 7 10 10 4
6 4 5 9 7 8 9 10 6 5 3 5 4 3 2 6 8 4 2 5 4 7 5 4 3 4 6 5 3 5 5 7 4 5 4 4 2 2 3 2 6 7 9 11
4 5 8 6 6 5 7 11 6 6 8 7 8 1 4 10 9 8 6 7 8 6 4 5 4 3 3 2 3 3 4 7 4 4 3 4 3 2 2 2 2 3 5 6
8 8 9 7 7 5 3 5 12 6 4 5 4 7 11 11 6 5 8 9 7 3 2 4 2 4 3 3 5 7 4 4 5 4 2 1 1 2 2 3 2 1 2 5
7 6 4 2 3 4 3 6 8 6 3 5 7 6 7 10 9 8 8 3 3 1 3 4 2 5 7 6 4 4 3 3 4 4 3 3 3 4 5 3 2 2 3 2
6 5 4 4 5 2 2 7 4 5 5 5 3 2 9 5 5 7 7 6 5 6 2 4 4 5 6 6 5 4 4 4 8 4 4 4 4 5 3 5 6 7 5 5
8 6 5 2 2 7 4 4 5 9 7 7 6 5 4 7 9 8 6 6 6 4 2 3 3 4 6 6 5 3 4 4 4 5 5 6 6 6 7 8 7 6 4 5
5 8 6 6 3 6 4 2 10 11 11 11 8 8 4 3 4 3 7 7 6 0 2 4 8 8 4 5 5 3 4 5 7 7 7 8 8 8 7 6 6 5 5 5
9 3 4 2 1 4 8 11 8 6 6 11 9 10 10 5 2 5 8 7 4 3 4 6 5 5 5 6 7 5 6 6 7 6 7 7 7 7 7 8 6 5 5 5
1 3 3 1 6 7 6 2 1 7 8 11 13 8 9 9 9 6 9 8 4 5 6 7 5 4 4 5 7 7 8 7 6 6 6 5 6 6 6 6 6 6 6 5
1 9 11 7 5 4 6 5 5 6 5 4 8 13 12 12 12 10 5 6 3 8 4 4 4 8 7 10 6 6 6 7 6 5 5 5 5 5 6 6 5 5 5 6
10 10 10 8 8 7 8 8 8 7 9 10 11 12 13 8 5 9 6 4 4 5 4 5 9 12 11 6 5 6 8 8 6 5 5 5 5 5 5 5 5 5 5 5
8 9 10 8 7 8 9 7 8 8 10 11 11 11 12 7 4 2 4 6 7 7 6 6 8 12 9 5 6 7 6 5 5 5 5 5 5 5 5 5 5 4 5 5
8 6 7 7 8 6 6 7 8 8 9 9 8 7 7 4 6 4 4 4 9 7 5 8 11 10 5 5 6 6 5 4 4 4 5 6 5 5 5 5 5 4 4 4
7 4 4 5 5 4 5 5 6 4 5 5 4 4 4 4 4 4 4 5 5 6 4 3 4 5 5 5 6 5 4 4 5 7 7 5 6 5 5 4 4 4 4 4
6 7 5 5 4 4 4 4 5 4 3 4 4 4 4 4 3 3 4 5 5 5 4 3 3 5 4 5 5 4 4 5 8 6 5 5 4 3 4 4 4 4 4 4
Wind_Direction
175 208 219 201 249 35 158 211 159 259 206 180 176 145 145 144 139 127 137 133 129 152 206 219 245 279 285 299 299 290 297 305 303 304 292 292 294 293 284 276 261 245 238 205
84 320 348 300 308 353 326 259 236 225 259 170 179 128 125 156 139 138 150 156 177 189 187 189 271 306 319 312 303 302 295 295 300 301 300 293 292 293 285 275 258 243 232 205
244 51 32 336 222 296 279 259 213 264 202 174 157 151 159 130 136 153 175 182 187 190 175 187 282 330 329 318 311 303 293 297 305 305 308 302 295 292 282 284 280 241 237 217
192 64 259 237 229 222 243 260 285 158 152 169 160 163 151 166 154 169 178 185 181 189 187 197 311 333 321 317 313 304 295 294 301 316 321 318 310 280 273 268 262 244 225 208
149 192 272 314 292 282 310 314 344 120 123 139 140 104 174 190 180 183 187 180 191 190 178 169 284 330 328 320 315 309 297 301 303 314 324 326 333 337 288 265 272 266 232 207
139 182 213 212 231 182 165 258 270 128 148 167 174 134 243 210 172 175 169 167 174 171 156 164 278 355 339 312 309 305 303 302 301 304 304 311 309 309 302 283 252 271 95 160
207 236 270 238 202 134 153 243 178 168 166 165 179 196 203 166 166 165 172 174 180 162 173 209 221 330 310 301 292 289 296 297 293 284 276 278 308 321 350 11 42 79 74 69
75 198 297 213 68 175 208 192 167 168 176 180 193 141 161 171 158 169 175 170 185 164 178 209 225 226 291 290 288 300 301 311 304 295 288 318 6 323 351 3 48 48 35 49
150 230 272 271 201 193 162 163 188 175 209 180 147 172 171 175 176 191 180 182 170 176 176 225 244 209 273 271 303 312 327 321 322 315 335 0 347 326 341 4 63 61 3 47
25 337 345 346 352 6 270 215 199 172 155 119 149 183 202 173 165 161 162 165 177 169 190 255 267 258 244 274 291 311 329 334 329 358 15 29 360 5 3 354 25 52 54 39
273 319 327 357 29 331 336 288 270 198 160 143 154 196 199 175 195 178 170 173 173 175 209 242 272 296 283 274 303 321 91 337 308 296 127 84 57 1 2 26 344 70 59 82
233 252 204 273 302 276 271 51 1 278 137 195 182 202 183 190 190 176 175 169 179 186 187 250 271 312 311 269 276 300 316 255 310 358 345 140 72 65 97 37 8 38 37 55
246 257 248 278 277 250 256 242 201 237 250 265 275 257 202 173 172 127 33 98 210 212 173 244 291 288 284 277 297 325 329 329 332 356 357 9 80 15 14 67 81 54 52 43
238 351 315 307 261 2 339 294 215 219 209 218 238 300 109 121 123 135 132 226 233 197 194 249 296 256 261 293 326 316 329 335 322 326 23 356 41 51 340 26 20 341 71 55
270 216 238 258 297 304 4 23 350 298 269 52 79 126 131 128 139 143 75 273 242 176 198 238 242 261 283 286 340 333 329 310 332 315 345 51 41 84 67 29 4 317 331 59
265 198 193 137 256 272 343 343 349 322 154 124 135 124 134 146 159 147 157 141 199 198 203 231 124 332 328 339 342 336 13 321 335 359 20 20 359 31 0 65 45 332 37 34
171 167 175 252 243 202 249 278 229 146 133 110 299 212 148 171 162 153 143 152 125 110 120 160 122 43 46 15 358 12 20 23 355 349 18 4 9 10 11 51 67 56 53 67
209 181 174 112 13 304 286 297 179 152 176 167 170 243 237 200 193 164 136 123 94 57 352 292 116 73 45 6 319 31 37 23 13 29 33 48 32 26 60 65 74 79 73 59
136 158 169 197 47 284 311 29 205 174 165 151 165 218 229 337 325 100 99 107 106 125 315 1 56 80 53 341 348 35 49 49 58 45 46 47 46 43 45 55 53 54 58 66
93 83 337 241 15 70 152 212 195 182 129 149 163 181 141 126 111 100 95 80 109 130 69 49 47 43 9 355 20 72 64 62 67 58 57 57 49 52 52 53 58 50 41 39
126 141 27 264 40 42 61 251 146 151 168 172 170 158 128 120 86 86 95 97 68 81 74 55 40 15 24 59 67 70 80 74 66 60 61 52 49 47 46 42 48 47 50 44
173 85 82 94 76 62 41 38 61 87 129 102 84 107 107 91 88 73 62 112 110 73 55 50 47 56 61 58 60 72 70 67 63 55 49 50 55 50 48 53 49 37 35 31
105 117 112 101 96 77 56 37 37 66 85 85 90 94 89 95 101 99 84 25 87 82 63 56 70 63 69 67 71 68 70 72 69 65 59 57 58 59 65 59 49 49 36 26
104 95 90 78 75 72 67 54 54 51 71 80 82 82 101 100 74 78 111 123 94 73 65 64 59 61 64 63 71 77 77 72 69 59 56 56 48 48 49 49 44 29 30 27
96 87 96 94 90 91 86 85 82 75 78 80 82 109 138 149 130 171 132 113 96 78 67 63 66 59 71 75 84 87 85 79 78 65 50 49 56 54 44 35 27 22 19 14
96 89 79 79 95 88 90 83 82 53 86 82 63 69 72 88 98 105 111 120 119 119 98 67 64 72 83 82 100 103 99 80 62 64 78 67 60 49 31 14 0 347 342 349
84 83 84 76 65 83 105 114 112 111 92 107 94 60 59 33 18 80 134 128 111 113 125 98 74 93 98 100 117 118 95 72 90 91 74 72 65 44 9 349 342 336 332 320